Theta_e
310 308 305 304 304 304 304 304 304 304 306 309 310 310 311 312 312 313 312 313 314 318 316 316 317 319 319 319 323 321 323 326 326 326 327 324 324 324 326 323 322 320 318 317 317 321 323 319 328 328 325 325 333 332
309 307 304 304 304 304 304 304 303 304 307 308 308 309 309 311 313 313 312 313 313 313 313 315 315 316 317 318 319 318 319 322 325 325 324 322 325 324 324 329 322 325 319 321 320 321 317 321 321 321 324 329 331 331
306 305 304 305 304 304 304 303 304 306 307 308 308 308 308 310 312 313 313 313 312 314 314 313 314 317 316 316 318 320 317 317 325 321 324 324 328 324 326 326 326 324 319 321 322 320 320 322 324 325 327 328 328 329
305 305 305 305 304 303 303 303 303 306 307 308 308 306 306 308 310 312 312 313 312 312 317 314 316 315 317 318 317 318 317 316 315 321 323 327 325 322 324 323 324 322 320 318 319 320 322 324 324 324 325 324 330 331
305 305 304 304 303 303 303 303 302 306 306 308 309 307 306 307 309 309 310 310 311 313 318 316 314 315 316 315 317 318 318 318 315 320 325 329 324 323 319 319 322 321 320 321 320 318 320 321 324 323 325 325 325 329
305 304 304 304 303 302 303 302 302 306 307 308 309 308 306 306 307 309 309 314 312 311 315 319 313 314 316 316 314 315 317 316 315 316 318 321 325 326 329 324 320 320 316 316 321 317 317 321 322 323 325 325 326 330
305 305 303 303 302 302 302 302 302 305 305 307 308 309 308 307 306 308 309 313 313 314 316 320 315 314 318 316 313 316 318 316 316 317 318 322 322 326 326 327 323 322 322 320 320 323 325 324 324 322 323 324 327 327
305 303 302 302 302 303 303 303 302 304 304 307 308 309 309 309 308 307 312 312 311 310 313 321 317 319 316 317 316 313 317 315 315 317 318 321 321 321 326 323 323 321 320 320 320 320 320 320 320 320 321 322 324 323
303 302 302 302 303 303 303 303 302 304 305 307 308 309 308 309 307 312 313 314 313 312 319 321 324 325 318 316 319 319 316 318 315 319 319 319 320 325 324 324 323 322 320 320 321 321 321 321 320 320 321 321 322 321
302 302 302 302 302 302 302 302 303 305 306 308 308 309 312 313 314 314 313 310 313 314 315 318 314 321 316 316 320 325 322 325 323 320 317 320 320 319 319 318 319 322 320 319 323 325 323 323 321 321 321 320 319 318
301 301 300 301 301 302 302 302 304 305 308 311 311 313 311 311 313 310 314 316 314 317 313 316 316 317 314 317 319 323 325 324 326 324 324 321 322 319 318 317 316 317 317 318 320 321 321 321 321 321 320 319 319 320
300 300 300 300 301 302 302 302 304 307 308 308 308 307 308 309 312 314 317 319 320 322 319 320 321 316 315 314 323 322 325 323 325 322 325 325 320 317 318 321 322 320 317 318 320 321 321 320 320 320 321 318 318 320
300 300 300 301 302 302 302 303 305 308 308 308 308 311 313 313 316 321 321 322 323 322 323 323 324 319 315 319 322 322 324 324 320 325 325 323 320 317 320 321 322 321 322 320 320 321 321 321 320 320 319 320 319 320
299 300 301 301 302 302 302 303 307 308 309 310 314 312 313 317 318 319 321 321 321 322 322 320 321 323 317 322 320 323 321 323 325 326 324 319 318 318 320 322 320 321 321 323 323 322 323 321 319 319 319 320 319 320
300 301 302 302 302 302 303 304 308 308 309 313 314 313 313 314 317 318 318 318 318 319 320 319 321 322 324 324 320 321 324 325 324 324 321 319 315 317 321 323 323 321 322 322 320 321 320 319 318 318 319 319 320 321
301 302 305 307 306 303 304 307 308 308 310 312 313 313 313 315 317 316 315 315 315 318 318 319 324 325 326 318 323 324 324 325 323 323 323 320 319 318 321 323 323 322 319 318 319 320 319 318 318 318 318 318 320 323
302 303 307 304 303 304 306 307 308 310 312 313 311 308 311 313 314 313 313 314 314 318 321 321 322 325 322 322 321 322 324 324 326 326 325 322 321 319 317 322 323 322 320 319 319 320 320 319 319 318 318 319 320 320
303 306 307 305 305 307 308 308 309 312 312 309 309 308 310 311 312 312 310 310 314 315 318 319 321 324 324 323 326 323 323 323 322 322 322 321 319 317 317 317 318 319 320 320 321 321 319 319 317 318 319 320 320 319
303 305 306 307 308 308 308 308 308 309 307 305 305 305 307 309 309 310 309 308 310 312 316 318 321 322 320 318 319 321 322 323 322 321 318 316 317 317 318 318 317 317 318 320 322 322 323 323 321 321 320 320 321 321
302 303 306 307 308 308 311 310 309 310 310 308 304 306 306 307 307 307 307 307 312 316 318 320 320 317 318 316 315 317 316 318 319 320 320 317 319 319 318 318 318 320 322 323 324 323 323 325 324 322 323 322 320 321
303 305 307 307 308 308 309 308 307 306 308 309 308 307 309 307 308 309 309 308 313 315 317 316 315 315 313 314 315 316 314 318 320 319 320 319 318 318 320 321 322 321 319 320 322 322 323 322 324 323 323 323 323 323
306 308 308 307 308 308 307 306 304 304 305 307 307 308 309 309 309 310 308 312 312 312 312 312 314 315 314 313 314 313 315 317 319 319 318 318 319 317 319 321 321 322 321 320 322 322 322 323 323 322 321 323 324 324
308 308 309 308 308 306 308 306 308 309 310 310 310 313 312 311 311 309 313 311 311 311 311 310 311 313 313 314 314 314 315 315 315 317 318 317 317 318 320 323 321 320 320 320 324 323 323 323 323 322 322 322 322 322
307 308 308 309 308 306 308 310 310 312 313 315 317 316 315 312 312 315 317 314 316 314 318 318 316 312 311 312 312 313 314 316 317 317 318 317 317 319 322 322 321 321 320 324 324 324 324 324 323 323 323 322 322 322
305 305 305 305 308 310 311 312 313 314 316 316 317 317 316 316 320 320 319 319 318 317 318 318 320 317 314 313 314 317 320 319 317 317 319 320 320 321 321 321 322 323 322 322 323 324 323 322 322 322 322 323 323 322
307 307 305 309 310 310 311 313 315 313 316 317 317 316 318 320 321 321 322 319 319 318 315 318 320 321 318 315 317 318 319 322 321 320 321 321 321 321 320 320 318 318 318 321 322 320 318 317 315 316 319 319 320 321
308 308 308 306 307 310 313 314 311 312 314 316 316 318 317 320 322 321 319 317 317 315 316 317 318 319 319 319 320 322 323 321 322 322 323 323 322 322 321 320 319 320 320 320 321 320 319 317 314 314 314 315 316 316
307 308 308 308 307 307 313 314 313 313 312 311 316 318 318 318 318 315 313 316 316 316 316 318 319 319 320 321 322 322 322 321 320 314 311 310 309 310 314 317 316 318 318 318 318 319 318 317 317 316 314 313 313 314
307 307 306 307 307 308 310 311 311 310 312 316 317 317 317 316 314 313 314 314 315 316 317 320 321 322 322 322 320 320 321 316 312 310 309 307 306 309 310 310 310 310 310 310 310 310 310 312 312 313 313 313 313 313
306 304 306 307 309 309 309 308 311 313 314 313 314 314 314 314 314 314 315 316 317 318 319 320 321 319 315 312 309 310 311 311 310 308 307 306 308 310 311 311 311 311 311 311 312 312 312 312 312 311 312 312 312 313
304 304 306 307 308 308 309 310 312 314 315 315 315 315 315 316 316 318 318 320 320 321 320 317 313 312 310 309 308 307 307 309 310 310 310 310 311 311 311 311 311 311 311 311 311 310 310 310 310 310 310 310 310 311
304 306 308 310 311 311 312 314 315 317 318 318 318 317 318 320 322 320 322 321 320 320 319 319 316 315 313 312 310 310 310 310 311 311 311 311 311 311 311 311 311 311 311 311 310 310 310 310 309 309 309 309 310 310
306 310 311 311 312 316 316 316 319 319 320 322 322 321 321 322 323 319 316 316 319 319 318 317 317 316 311 311 311 310 310 311 311 311 312 312 312 312 312 311 311 311 311 311 310 310 310 309 309 309 310 310 309 309
Wind_Speed
15 15 14 12 12 13 14 15 17 17 13 14 14 13 12 9 9 8 8 6 4 2 8 8 10 8 4 0 2 4 6 1 3 2 4 4 4 3 1 3 4 7 7 4 3 3 3 7 4 7 6 2 6 6
15 14 12 13 14 15 16 16 16 15 13 13 13 12 10 10 9 5 5 3 7 6 6 22 27 28 22 19 3 2 2 2 3 2 1 2 2 2 4 3 3 2 6 6 7 6 3 4 3 5 7 6 6 6
14 13 13 13 15 16 16 15 13 11 13 15 13 12 11 9 9 7 8 9 7 3 8 6 9 14 17 32 32 5 3 5 2 4 2 1 1 3 3 4 3 3 3 4 3 3 4 4 3 3 6 6 6 6
13 13 13 14 15 14 13 13 13 10 12 14 14 13 12 11 11 9 9 5 3 4 4 6 7 13 9 10 26 36 13 3 3 2 1 2 0 1 2 2 2 4 5 5 1 2 0 2 4 4 5 2 2 2
12 13 13 13 13 13 12 12 12 10 10 14 14 13 12 12 13 15 18 19 17 4 3 7 23 9 13 21 21 26 22 9 1 3 1 3 2 2 1 2 4 4 5 4 5 6 5 4 4 3 5 7 9 7
11 11 13 14 13 13 12 12 12 10 10 13 15 14 13 13 14 8 3 2 6 10 3 4 6 5 9 7 16 14 12 4 3 4 3 3 1 4 3 3 4 1 2 4 3 5 3 2 3 1 3 5 4 4
12 14 12 12 12 12 11 12 12 11 10 13 15 15 14 13 12 4 3 1 10 1 2 4 5 5 6 3 3 3 10 3 3 2 3 3 3 10 4 5 7 1 5 3 2 6 2 2 5 8 7 2 1 1
13 12 12 11 11 9 10 12 13 11 12 13 16 17 17 18 16 10 4 4 19 4 3 3 5 5 4 2 2 1 3 2 3 3 1 3 3 2 4 12 8 8 8 5 7 7 3 2 4 4 3 2 3 2
10 11 11 10 9 11 12 13 13 10 13 15 18 19 7 2 3 2 4 4 14 5 2 2 2 3 4 2 0 1 2 2 1 4 2 3 2 5 8 11 6 6 8 11 4 3 5 4 6 5 5 5 6 5
10 9 10 9 8 10 12 13 10 11 13 16 7 1 2 2 9 4 3 1 3 3 2 3 2 4 2 2 2 1 1 1 3 3 2 3 4 8 7 9 9 14 13 7 5 2 3 4 7 7 11 6 7 5
8 8 10 10 8 8 11 11 8 11 6 3 3 2 7 8 2 1 2 2 2 3 3 3 4 3 2 2 2 2 2 1 1 3 3 2 4 5 5 8 8 9 7 9 8 9 9 7 8 8 8 8 9 10
8 9 9 9 7 8 10 9 6 6 4 6 8 8 5 2 1 1 3 2 4 3 3 3 3 5 3 2 2 2 2 2 3 1 1 3 3 5 6 7 9 7 7 9 10 10 7 8 10 8 6 7 13 15
8 9 9 8 6 8 9 7 5 6 9 3 1 2 1 1 1 4 4 2 2 2 2 1 4 2 1 1 1 1 2 3 1 1 2 4 4 5 6 6 10 10 8 7 8 11 13 13 12 14 9 12 14 16
9 9 9 7 8 10 9 6 4 3 2 1 2 4 3 4 4 2 3 2 3 5 7 4 3 2 1 1 2 2 2 1 2 1 3 3 4 6 6 5 6 9 6 7 7 7 8 9 10 16 16 16 16 16
8 8 9 12 10 9 6 5 3 2 2 2 2 4 4 3 1 2 3 2 4 4 2 3 3 1 2 2 2 2 2 2 3 3 3 4 5 5 6 6 9 10 10 4 2 4 5 8 10 12 16 14 15 14
8 9 3 7 8 7 7 5 3 2 3 2 4 4 4 1 3 2 1 8 4 4 2 1 2 2 1 3 1 4 4 4 2 2 3 3 5 6 5 6 7 6 6 7 4 5 7 11 10 11 12 13 16 16
6 3 11 5 7 9 7 3 2 3 3 3 4 4 4 2 5 4 3 3 3 3 3 2 3 1 2 3 1 1 1 2 3 3 2 3 3 5 5 4 4 5 6 9 9 5 6 9 10 8 6 15 17 20
3 6 4 3 6 5 3 3 3 3 5 4 3 3 3 3 3 4 3 2 0 1 1 2 1 1 3 2 1 2 3 3 3 1 3 4 3 3 4 3 6 6 5 9 9 7 3 10 8 8 16 16 16 17
5 5 5 3 4 2 2 3 3 3 5 3 3 3 3 4 4 8 5 4 4 3 2 1 2 3 3 2 2 2 3 0 2 2 4 3 7 5 9 11 8 6 6 6 6 5 4 5 13 16 15 12 15 19
5 6 3 4 7 2 2 2 4 3 3 3 2 3 3 4 3 3 4 3 4 2 2 3 4 3 3 3 4 3 3 3 2 3 5 4 9 6 4 6 7 6 6 8 7 6 7 4 4 11 15 19 17 17
4 4 3 6 5 4 2 2 3 3 3 3 2 2 4 2 3 3 3 4 3 4 4 4 4 4 5 6 7 5 4 3 4 4 4 3 6 8 10 9 7 8 7 7 3 7 9 7 10 6 13 18 20 21
3 5 4 4 2 2 3 5 3 3 2 3 3 2 3 3 3 3 2 1 3 4 4 4 6 8 6 5 7 10 15 11 11 11 10 4 3 4 4 8 5 3 5 8 10 7 9 9 8 6 9 11 12 15
1 3 2 4 3 2 4 3 2 3 2 3 2 3 3 3 3 1 2 2 3 3 4 4 7 12 8 11 6 10 13 10 5 7 7 10 11 12 11 14 10 6 3 4 3 5 6 7 7 7 4 3 2 5
3 2 2 2 3 3 2 3 3 3 3 3 3 3 3 3 2 1 2 1 2 3 4 7 5 3 2 3 3 4 10 10 14 12 11 6 3 8 6 5 3 2 3 5 4 4 6 6 4 6 7 5 5 2
0 2 2 4 3 2 3 3 3 2 3 3 3 3 3 1 2 2 2 1 2 2 4 5 5 4 2 2 2 5 3 5 4 4 8 13 10 7 0 3 1 1 4 5 3 5 6 5 5 4 4 6 7 5
2 4 6 3 3 3 3 3 5 5 3 3 4 3 2 2 2 3 3 2 1 1 3 4 4 5 4 2 3 2 6 5 4 3 3 5 5 3 1 3 3 5 3 5 3 5 6 5 6 6 4 4 4 6
3 4 4 3 1 2 3 4 4 3 4 3 3 2 1 3 3 1 2 1 2 4 14 14 9 6 5 8 10 5 9 8 2 2 9 8 4 2 3 2 1 6 5 3 4 6 6 7 6 6 6 6 6 7
4 3 5 2 3 3 3 3 3 3 4 3 2 1 2 3 3 2 2 9 17 18 15 15 13 12 12 11 7 6 4 6 13 17 20 18 16 14 9 6 5 4 4 4 6 8 9 10 10 10 10 11 12 9
3 2 1 4 4 4 5 5 4 3 3 1 2 2 3 2 6 9 21 20 21 16 11 8 3 5 5 4 3 3 3 8 4 9 8 3 4 15 14 11 10 10 9 9 9 10 9 7 10 13 15 16 17 16
4 4 3 4 4 5 4 5 3 2 1 1 1 3 6 6 16 23 17 11 9 7 7 5 2 5 7 9 11 16 14 10 9 9 4 3 2 5 8 9 10 11 11 12 12 12 10 10 11 11 12 13 13 13
2 4 3 4 4 4 4 3 2 1 1 5 5 6 7 4 7 3 5 4 2 5 11 11 14 13 13 12 13 10 7 12 14 14 12 9 8 9 10 11 11 11 11 10 10 11 12 13 14 14 15 17 19 19
4 6 4 3 3 3 2 3 2 3 4 2 2 3 2 2 2 3 7 7 6 5 9 11 13 8 9 9 10 15 18 15 12 11 10 9 9 9 9 10 11 12 11 10 10 11 12 13 13 13 14 16 18 19
3 2 3 2 2 2 2 2 1 2 2 2 2 1 1 1 2 2 7 5 4 5 5 8 10 11 15 19 18 17 14 12 10 9 8 9 9 9 10 11 11 11 11 12 13 13 13 14 14 16 17 18 19 20
Wind_Direction
292 296 299 299 308 316 319 321 324 322 325 331 333 336 339 334 327 325 304 284 239 274 282 246 261 262 312 90 264 312 333 353 342 98 122 202 161 236 267 167 202 162 149 179 116 102 227 169 69 148 210 152 168 173
284 286 288 296 304 310 315 319 321 325 328 328 325 327 322 319 319 301 283 250 297 234 262 292 277 258 248 247 250 256 272 293 249 334 288 137 118 74 203 228 109 254 186 176 174 205 242 215 194 218 177 156 192 168
278 280 285 293 301 308 314 315 322 327 326 323 322 325 330 314 309 289 275 290 290 261 279 264 250 271 262 233 223 229 253 241 239 196 225 178 112 121 192 216 207 226 184 128 133 257 236 210 211 206 191 198 185 200
272 280 290 298 304 309 310 312 318 317 324 318 319 322 323 320 309 299 283 269 260 285 281 280 303 277 293 254 217 217 236 328 343 41 105 127 52 154 281 279 188 207 160 142 333 287 281 227 226 195 199 169 144 155
274 285 291 297 300 303 304 309 314 308 314 312 315 318 321 320 313 301 281 268 249 239 289 292 298 283 318 228 216 212 218 230 351 336 340 215 163 46 241 233 249 191 166 150 209 198 157 203 206 182 182 215 219 209
275 283 291 293 298 302 304 309 312 306 312 313 316 313 315 318 322 327 314 19 192 203 274 296 291 292 303 218 196 202 197 177 208 176 219 226 248 65 317 276 281 305 161 182 184 165 142 53 204 169 213 241 249 228
277 287 287 289 294 297 302 311 311 301 305 306 310 308 307 308 303 253 244 41 159 297 265 294 295 272 294 140 122 112 165 188 163 224 215 186 176 165 187 246 243 350 272 160 109 112 45 199 213 216 219 235 185 12
282 281 285 285 291 300 309 312 312 303 306 303 305 305 303 298 285 282 347 262 214 287 275 280 279 318 354 12 92 87 138 213 174 222 284 173 121 166 204 249 289 307 314 241 212 220 262 85 134 202 162 130 237 245
278 282 287 288 295 303 301 307 311 306 312 307 307 306 297 242 222 315 1 323 202 218 280 253 279 289 354 15 127 36 162 171 113 212 231 123 169 207 215 217 215 239 236 246 81 136 160 188 205 192 193 194 221 228
277 281 283 284 285 304 309 310 312 317 311 311 310 334 260 239 307 263 250 98 192 209 230 250 290 274 355 353 309 146 46 143 175 244 99 175 245 241 215 212 206 206 224 158 129 193 177 230 209 200 213 213 216 179
279 287 290 286 284 300 306 311 315 320 324 348 343 261 302 306 263 34 264 193 173 238 215 233 215 241 258 216 257 43 203 239 150 251 165 248 274 260 340 241 239 233 216 209 212 222 196 191 188 205 217 213 192 185
287 291 291 291 276 297 300 304 304 314 330 320 297 296 295 321 181 240 234 209 209 241 190 224 235 202 263 177 170 233 174 64 234 185 96 270 263 276 322 311 298 278 242 218 203 217 215 212 209 202 203 195 201 200
296 293 294 288 270 293 294 290 286 290 314 304 250 251 246 224 245 226 224 216 286 264 231 248 286 227 303 126 59 118 119 231 28 61 238 241 267 298 313 311 297 282 239 235 217 209 214 224 215 199 202 210 194 194
295 295 292 269 281 281 286 263 279 300 286 257 248 291 217 225 243 55 359 3 306 271 296 310 259 256 212 170 169 162 230 74 39 324 248 265 280 302 308 323 335 330 296 203 214 201 206 200 204 208 211 203 190 194
303 296 285 278 274 272 257 236 239 258 265 263 245 247 235 251 216 135 236 298 258 270 278 300 270 19 307 244 203 108 125 238 208 229 247 275 294 297 313 345 346 346 321 90 91 156 166 180 181 201 199 196 199 191
310 308 312 320 274 209 194 211 205 231 250 240 236 254 248 237 11 291 159 264 285 310 273 180 265 178 259 308 239 211 153 217 235 234 267 304 331 344 318 323 313 311 322 324 52 133 168 179 187 195 190 193 194 195
307 290 330 341 152 169 192 178 210 230 254 240 245 236 253 266 237 253 236 245 296 330 313 340 338 283 278 247 223 80 156 246 268 281 233 240 288 314 324 318 321 316 331 357 4 12 150 181 182 165 186 213 212 219
250 24 55 124 158 158 191 231 258 249 248 237 230 241 211 231 249 248 247 221 118 294 280 247 27 321 258 270 232 233 223 249 234 310 301 306 334 297 301 294 299 299 323 343 354 11 151 155 170 209 219 217 214 215
266 279 326 197 198 262 220 224 216 263 248 253 257 244 233 249 239 248 250 230 193 213 273 288 250 230 246 229 246 284 300 302 266 284 277 313 320 330 325 327 335 321 318 319 318 313 272 209 217 218 223 209 208 213
265 276 275 256 220 277 261 245 210 245 266 254 248 261 225 228 240 230 233 195 159 183 207 222 221 222 202 220 197 213 235 266 252 307 306 325 347 341 336 332 323 350 341 344 339 321 298 295 246 209 205 213 206 221
250 249 231 200 207 233 268 298 271 232 286 278 258 231 260 285 258 238 240 144 147 197 222 219 221 246 226 237 244 251 271 229 233 213 251 301 315 300 294 282 283 313 347 348 349 347 354 311 299 253 215 220 224 228
243 201 156 202 267 235 259 228 226 272 277 262 303 215 275 281 263 231 144 153 217 223 207 205 227 232 244 249 250 237 267 266 266 263 265 231 275 294 300 297 303 289 305 314 334 332 335 341 331 283 245 235 219 218
192 165 210 192 242 207 266 180 243 231 258 263 299 266 249 256 237 115 251 211 242 248 279 275 269 250 233 248 252 265 267 249 254 253 259 242 262 280 285 295 302 257 279 303 321 16 22 21 42 49 57 82 202 222
186 227 230 235 200 266 282 246 224 270 265 258 240 263 265 237 308 182 244 252 258 316 340 337 327 294 285 223 235 258 270 249 244 257 249 228 267 285 288 287 228 214 233 309 263 269 290 313 348 10 354 10 31 43
302 244 137 265 239 238 246 253 238 285 301 301 268 269 271 331 260 242 188 283 302 316 351 336 336 355 290 279 280 277 293 220 206 233 243 216 237 290 310 234 24 248 248 256 273 281 299 312 316 307 305 289 276 246
255 207 183 232 212 199 249 267 191 226 242 254 241 262 287 269 259 252 170 197 255 302 306 329 322 324 330 335 313 306 328 327 309 204 274 220 201 144 36 353 325 318 290 251 277 311 311 312 316 321 306 280 261 236
238 244 212 224 250 309 269 252 246 252 258 247 252 280 323 272 253 223 123 221 269 307 317 302 290 290 291 300 316 313 331 321 269 97 101 90 70 90 121 141 44 359 7 325 284 266 288 299 298 308 317 322 322 317
253 280 213 218 207 222 260 274 261 242 242 241 290 263 261 258 283 285 233 317 308 307 302 298 288 270 257 271 284 302 359 87 122 112 101 82 64 61 62 47 24 12 343 311 289 280 279 277 284 292 293 294 297 297
241 232 173 247 228 242 224 216 237 242 238 66 324 270 266 277 310 295 293 295 293 289 282 285 271 205 230 263 311 318 81 127 107 82 70 43 13 30 42 41 32 30 25 25 28 19 359 327 298 285 279 276 278 279
240 181 208 239 218 223 238 194 240 267 269 243 267 322 280 275 270 276 267 258 252 253 264 246 191 171 140 121 95 75 79 87 85 97 107 90 66 35 26 21 19 18 16 14 12 13 13 9 9 6 0 356 351 336
222 164 221 232 253 242 237 242 254 278 280 271 257 255 273 295 304 326 342 355 357 127 122 107 106 131 130 121 110 99 73 79 87 85 81 72 52 41 32 23 17 10 5 6 12 9 2 356 352 348 345 342 338 336
194 204 201 229 255 275 243 238 192 199 232 255 245 184 230 207 283 327 30 63 145 202 111 126 138 138 121 114 110 109 105 98 79 71 67 53 29 13 7 9 6 2 1 360 2 358 353 349 347 345 338 334 333 331
197 187 198 239 266 245 242 260 259 272 235 259 280 286 97 103 272 330 10 5 169 182 129 103 120 123 119 116 110 104 94 86 84 77 65 67 61 45 35 23 15 12 14 19 20 15 9 2 353 344 336 329 325 324